Wetterdaten: Donnerstag, 04.09.2014
Datum Zeit Temp. A. Feuchte A. Luftdruck Regen Wind Richtung Richtung Sonnenschein ET UV Solar Taupunkt Windchill Windben Empfang
04.09.2014 00:00 13,8 C 96 % 1017,5 hPa 0,0 l/m 1,4 km/h (1 Bft) O-SO 110 0 min 0,000 mm 0,0 UV-I 0 W/m 13,2 C 13,8 C 4,0 km/h (1 Bft) 0,00 %
04.09.2014 00:15 13,8 C 96 % 1017,5 hPa 0,0 l/m 0,0 km/h (0 Bft) O-NO 77 0 min 0,000 mm 0,0 UV-I 0 W/m 13,2 C 13,8 C 4,0 km/h (1 Bft) 0,00 %
04.09.2014 00:30 13,8 C 96 % 1017,4 hPa 0,0 l/m 1,8 km/h (1 Bft) O 84 0 min 0,000 mm 0,0 UV-I 0 W/m 13,2 C 13,8 C 0,0 km/h (0 Bft) 0,00 %
04.09.2014 00:45 13,8 C 96 % 1017,3 hPa 0,0 l/m 0,0 km/h (0 Bft) S-SO 161 0 min 0,000 mm 0,0 UV-I 0 W/m 13,2 C 13,8 C 4,0 km/h (1 Bft) 0,00 %
04.09.2014 01:00 13,8 C 97 % 1017,2 hPa 0,0 l/m 0,0 km/h (0 Bft) O 90 0 min 0,000 mm 0,0 UV-I 0 W/m 13,3 C 13,8 C 0,0 km/h (0 Bft) 0,00 %
04.09.2014 01:15 13,8 C 97 % 1017,3 hPa 0,0 l/m 0,0 km/h (0 Bft) O-NO 69 0 min 0,000 mm 0,0 UV-I 0 W/m 13,3 C 13,8 C 0,0 km/h (0 Bft) 0,00 %
04.09.2014 01:30 13,8 C 97 % 1017,1 hPa 0,0 l/m 0,0 km/h (0 Bft) NO 34 0 min 0,000 mm 0,0 UV-I 0 W/m 13,3 C 13,8 C 0,0 km/h (0 Bft) 0,00 %
04.09.2014 01:45 13,8 C 97 % 1017,1 hPa 0,0 l/m 0,0 km/h (0 Bft) O 96 0 min 0,000 mm 0,0 UV-I 0 W/m 13,3 C 13,8 C 0,0 km/h (0 Bft) 0,00 %
04.09.2014 02:00 13,7 C 97 % 1017,0 hPa 0,0 l/m 0,0 km/h (0 Bft) O-NO 61 0 min 0,000 mm 0,0 UV-I 0 W/m 13,2 C 13,7 C 0,0 km/h (0 Bft) 0,00 %
04.09.2014 02:15 13,8 C 97 % 1017,0 hPa 0,0 l/m 0,4 km/h (0 Bft) NO 48 0 min 0,000 mm 0,0 UV-I 0 W/m 13,3 C 13,8 C 0,0 km/h (0 Bft) 0,00 %
04.09.2014 02:30 13,8 C 97 % 1017,1 hPa 0,0 l/m 1,8 km/h (1 Bft) N-NO 27 0 min 0,000 mm 0,0 UV-I 0 W/m 13,3 C 13,8 C 4,0 km/h (1 Bft) 0,00 %
04.09.2014 02:45 13,8 C 97 % 1017,2 hPa 0,0 l/m 4,0 km/h (1 Bft) NO 42 0 min 0,000 mm 0,0 UV-I 0 W/m 13,3 C 13,8 C 4,0 km/h (1 Bft) 0,00 %
04.09.2014 03:00 13,8 C 96 % 1017,0 hPa 0,0 l/m 0,7 km/h (0 Bft) O 82 0 min 0,000 mm 0,0 UV-I 0 W/m 13,2 C 13,8 C 4,0 km/h (1 Bft) 0,00 %
04.09.2014 03:15 13,8 C 97 % 1017,0 hPa 0,0 l/m 1,4 km/h (1 Bft) O-NO 57 0 min 0,000 mm 0,0 UV-I 0 W/m 13,3 C 13,8 C 4,0 km/h (1 Bft) 0,00 %
04.09.2014 03:30 13,9 C 96 % 1016,9 hPa 0,0 l/m 0,0 km/h (0 Bft) NO 34 0 min 0,000 mm 0,0 UV-I 0 W/m 13,3 C 13,9 C 4,0 km/h (1 Bft) 0,00 %
04.09.2014 03:45 13,9 C 96 % 1016,9 hPa 0,0 l/m 0,4 km/h (0 Bft) O-NO 59 0 min 0,000 mm 0,0 UV-I 0 W/m 13,3 C 13,9 C 0,0 km/h (0 Bft) 0,00 %
04.09.2014 04:00 13,9 C 96 % 1016,9 hPa 0,0 l/m 2,9 km/h (1 Bft) O-NO 66 0 min 0,000 mm 0,0 UV-I 0 W/m 13,3 C 13,9 C 4,0 km/h (1 Bft) 0,00 %
04.09.2014 04:15 13,9 C 96 % 1016,7 hPa 0,0 l/m 4,0 km/h (1 Bft) O-NO 62 0 min 0,000 mm 0,0 UV-I 0 W/m 13,3 C 13,9 C 4,0 km/h (1 Bft) 0,00 %
04.09.2014 04:30 13,9 C 96 % 1016,8 hPa 0,0 l/m 2,9 km/h (1 Bft) O 81 0 min 0,000 mm 0,0 UV-I 0 W/m 13,3 C 13,9 C 7,9 km/h (2 Bft) 0,00 %
04.09.2014 04:45 13,9 C 96 % 1016,8 hPa 0,0 l/m 4,3 km/h (1 Bft) NO 39 0 min 0,000 mm 0,0 UV-I 0 W/m 13,3 C 13,9 C 4,0 km/h (1 Bft) 0,00 %
04.09.2014 05:00 13,9 C 96 % 1016,8 hPa 0,0 l/m 4,3 km/h (1 Bft) O 80 0 min 0,000 mm 0,0 UV-I 0 W/m 13,3 C 13,9 C 7,9 km/h (2 Bft) 0,00 %
04.09.2014 05:15 14,0 C 96 % 1016,8 hPa 0,0 l/m 6,5 km/h (2 Bft) O-NO 68 0 min 0,000 mm 0,0 UV-I 0 W/m 13,4 C 14,0 C 7,9 km/h (2 Bft) 0,00 %
04.09.2014 05:30 14,0 C 96 % 1016,7 hPa 0,0 l/m 1,8 km/h (1 Bft) O-NO 63 0 min 0,000 mm 0,0 UV-I 0 W/m 13,4 C 14,0 C 7,9 km/h (2 Bft) 0,00 %
04.09.2014 05:45 14,0 C 96 % 1016,9 hPa 0,0 l/m 1,8 km/h (1 Bft) NO 43 0 min 0,000 mm 0,0 UV-I 0 W/m 13,4 C 14,0 C 4,0 km/h (1 Bft) 0,00 %
04.09.2014 06:00 14,0 C 96 % 1016,9 hPa 0,0 l/m 1,8 km/h (1 Bft) N 0 0 min 0,000 mm 0,0 UV-I 0 W/m 13,4 C 14,0 C 4,0 km/h (1 Bft) 0,00 %
04.09.2014 06:15 14,1 C 95 % 1016,8 hPa 0,0 l/m 6,8 km/h (2 Bft) NO 53 0 min 0,000 mm 0,0 UV-I 0 W/m 13,3 C 13,9 C 4,0 km/h (1 Bft) 0,00 %
04.09.2014 06:30 14,1 C 95 % 1016,7 hPa 0,0 l/m 0,4 km/h (0 Bft) O-NO 71 0 min 0,000 mm 0,0 UV-I 0 W/m 13,3 C 14,1 C 7,9 km/h (2 Bft) 0,00 %
04.09.2014 06:45 14,3 C 95 % 1016,8 hPa 0,0 l/m 6,5 km/h (2 Bft) O 80 0 min 0,000 mm 0,0 UV-I 0 W/m 13,5 C 14,3 C 4,0 km/h (1 Bft) 0,00 %
04.09.2014 07:00 14,4 C 93 % 1016,8 hPa 0,0 l/m 8,3 km/h (2 Bft) O-NO 65 0 min 0,000 mm 1,0 UV-I 4 W/m 13,3 C 13,3 C 11,9 km/h (2 Bft) 0,00 %
04.09.2014 07:15 14,5 C 92 % 1016,6 hPa 0,0 l/m 6,8 km/h (2 Bft) NO 46 0 min 0,000 mm 1,0 UV-I 8 W/m 13,2 C 14,3 C 11,9 km/h (2 Bft) 0,00 %
04.09.2014 07:30 14,6 C 91 % 1016,7 hPa 0,0 l/m 10,4 km/h (2 Bft) O-NO 73 0 min 0,000 mm 1,0 UV-I 28 W/m 13,1 C 12,5 C 11,9 km/h (2 Bft) 0,00 %
04.09.2014 07:45 14,8 C 91 % 1016,6 hPa 0,0 l/m 15,5 km/h (3 Bft) O-NO 68 0 min 0,000 mm 1,0 UV-I 47 W/m 13,3 C 10,8 C 11,9 km/h (2 Bft) 0,00 %
04.09.2014 08:00 14,9 C 90 % 1016,6 hPa 0,0 l/m 10,4 km/h (2 Bft) O-NO 60 0 min 0,000 mm 1,0 UV-I 43 W/m 13,3 C 12,8 C 15,8 km/h (3 Bft) 0,00 %
04.09.2014 08:15 15,0 C 90 % 1016,6 hPa 0,0 l/m 6,8 km/h (2 Bft) O-NO 62 0 min 0,000 mm 1,0 UV-I 71 W/m 13,4 C 14,8 C 15,8 km/h (3 Bft) 0,00 %
04.09.2014 08:30 15,1 C 89 % 1016,7 hPa 0,0 l/m 11,5 km/h (2 Bft) NO 40 0 min 0,000 mm 2,0 UV-I 87 W/m 13,3 C 12,6 C 7,9 km/h (2 Bft) 0,00 %
04.09.2014 08:45 15,4 C 86 % 1016,4 hPa 0,0 l/m 12,2 km/h (2 Bft) NO 46 0 min 0,000 mm 2,0 UV-I 89 W/m 13,1 C 12,7 C 15,8 km/h (3 Bft) 0,00 %
04.09.2014 09:00 15,8 C 84 % 1016,5 hPa 0,0 l/m 20,5 km/h (4 Bft) NO 54 0 min 0,000 mm 3,0 UV-I 119 W/m 13,1 C 10,7 C 15,8 km/h (3 Bft) 0,00 %
04.09.2014 09:15 15,9 C 84 % 1016,6 hPa 0,0 l/m 11,9 km/h (2 Bft) O-NO 62 0 min 0,000 mm 3,0 UV-I 147 W/m 13,2 C 13,3 C 24,1 km/h (4 Bft) 0,00 %
04.09.2014 09:30 16,0 C 83 % 1016,3 hPa 0,0 l/m 14,8 km/h (3 Bft) O 81 0 min 0,000 mm 3,0 UV-I 170 W/m 13,1 C 12,5 C 15,8 km/h (3 Bft) 0,00 %
04.09.2014 09:45 16,1 C 84 % 1016,6 hPa 0,0 l/m 11,9 km/h (2 Bft) O-NO 59 0 min 0,000 mm 2,0 UV-I 223 W/m 13,4 C 13,6 C 19,8 km/h (3 Bft) 0,00 %
04.09.2014 10:00 16,1 C 83 % 1016,3 hPa 0,0 l/m 7,9 km/h (2 Bft) O-SO 107 0 min 0,000 mm 2,0 UV-I 280 W/m 13,2 C 15,3 C 15,8 km/h (3 Bft) 0,00 %
04.09.2014 10:15 16,1 C 83 % 1016,4 hPa 0,0 l/m 6,8 km/h (2 Bft) O-NO 77 0 min 0,000 mm 2,0 UV-I 221 W/m 13,2 C 15,9 C 7,9 km/h (2 Bft) 0,00 %
04.09.2014 10:30 16,2 C 82 % 1016,0 hPa 0,0 l/m 7,2 km/h (2 Bft) O-NO 59 0 min 0,000 mm 3,0 UV-I 239 W/m 13,1 C 15,8 C 11,9 km/h (2 Bft) 0,00 %
04.09.2014 10:45 16,5 C 81 % 1016,1 hPa 0,0 l/m 19,4 km/h (3 Bft) O 82 0 min 0,000 mm 4,0 UV-I 211 W/m 13,2 C 11,8 C 11,9 km/h (2 Bft) 0,00 %
04.09.2014 11:00 16,9 C 80 % 1015,7 hPa 0,0 l/m 14,0 km/h (3 Bft) O-NO 60 0 min 0,000 mm 3,0 UV-I 193 W/m 13,4 C 13,8 C 24,1 km/h (4 Bft) 0,00 %
04.09.2014 11:15 17,1 C 80 % 1015,5 hPa 0,0 l/m 9,4 km/h (2 Bft) NO 36 0 min 0,000 mm 4,0 UV-I 152 W/m 13,6 C 15,7 C 15,8 km/h (3 Bft) 0,00 %
04.09.2014 11:30 17,7 C 78 % 1015,0 hPa 0,0 l/m 8,3 km/h (2 Bft) O-NO 77 0 min 0,000 mm 4,0 UV-I 342 W/m 13,8 C 16,8 C 15,8 km/h (3 Bft) 0,00 %
04.09.2014 11:45 18,1 C 78 % 1014,7 hPa 0,0 l/m 14,8 km/h (3 Bft) O 95 0 min 0,000 mm 6,0 UV-I 321 W/m 14,2 C 15,0 C 11,9 km/h (2 Bft) 0,00 %
04.09.2014 12:00 18,2 C 77 % 1014,5 hPa 0,0 l/m 14,4 km/h (3 Bft) NO 54 0 min 0,000 mm 6,0 UV-I 377 W/m 14,1 C 15,2 C 19,8 km/h (3 Bft) 0,00 %
04.09.2014 12:15 18,7 C 75 % 1014,4 hPa 0,0 l/m 20,9 km/h (4 Bft) O 87 0 min 0,000 mm 6,0 UV-I 307 W/m 14,2 C 14,3 C 19,8 km/h (3 Bft) 0,00 %
04.09.2014 12:30 18,9 C 74 % 1014,2 hPa 0,0 l/m 19,4 km/h (3 Bft) O-NO 63 15 min 0,000 mm 6,0 UV-I 422 W/m 14,2 C 14,9 C 24,1 km/h (4 Bft) 0,00 %
04.09.2014 12:45 19,5 C 72 % 1014,0 hPa 0,0 l/m 16,6 km/h (3 Bft) NO 51 15 min 0,000 mm 6,0 UV-I 450 W/m 14,3 C 16,3 C 24,1 km/h (4 Bft) 0,00 %
04.09.2014 13:00 19,8 C 71 % 1014,0 hPa 0,0 l/m 21,6 km/h (4 Bft) O 98 15 min 0,000 mm 6,0 UV-I 600 W/m 14,4 C 15,7 C 19,8 km/h (3 Bft) 0,00 %
04.09.2014 13:15 20,0 C 71 % 1013,9 hPa 0,0 l/m 11,5 km/h (2 Bft) O-NO 66 15 min 0,000 mm 6,0 UV-I 622 W/m 14,6 C 18,2 C 24,1 km/h (4 Bft) 0,00 %
04.09.2014 13:30 20,1 C 68 % 1013,7 hPa 0,0 l/m 25,9 km/h (4 Bft) O 82 15 min 0,000 mm 5,0 UV-I 609 W/m 14,0 C 15,4 C 15,8 km/h (3 Bft) 0,00 %
04.09.2014 13:45 20,2 C 68 % 1013,6 hPa 0,0 l/m 18,0 km/h (3 Bft) O-NO 72 15 min 0,000 mm 5,0 UV-I 605 W/m 14,1 C 16,8 C 28,1 km/h (4 Bft) 0,00 %
04.09.2014 14:00 20,1 C 70 % 1013,6 hPa 0,0 l/m 19,1 km/h (3 Bft) NO 46 15 min 0,000 mm 4,0 UV-I 639 W/m 14,5 C 16,5 C 24,1 km/h (4 Bft) 0,00 %
04.09.2014 14:15 20,2 C 70 % 1013,6 hPa 0,0 l/m 15,8 km/h (3 Bft) NO 46 15 min 0,000 mm 4,0 UV-I 522 W/m 14,5 C 17,3 C 28,1 km/h (4 Bft) 0,00 %
04.09.2014 14:30 20,5 C 67 % 1013,6 hPa 0,0 l/m 15,5 km/h (3 Bft) NO 51 15 min 0,000 mm 3,0 UV-I 601 W/m 14,2 C 17,7 C 15,8 km/h (3 Bft) 0,00 %
04.09.2014 14:45 20,5 C 67 % 1013,4 hPa 0,0 l/m 20,5 km/h (4 Bft) O 87 15 min 0,000 mm 3,0 UV-I 549 W/m 14,2 C 16,8 C 19,8 km/h (3 Bft) 0,00 %
04.09.2014 15:00 20,7 C 67 % 1013,2 hPa 0,0 l/m 19,1 km/h (3 Bft) O-NO 74 15 min 0,000 mm 3,0 UV-I 497 W/m 14,3 C 17,3 C 24,1 km/h (4 Bft) 0,00 %
04.09.2014 15:15 20,7 C 68 % 1013,1 hPa 0,0 l/m 18,4 km/h (3 Bft) O-NO 78 15 min 0,000 mm 3,0 UV-I 502 W/m 14,6 C 17,4 C 19,8 km/h (3 Bft) 0,00 %
04.09.2014 15:30 20,8 C 69 % 1013,1 hPa 0,0 l/m 13,0 km/h (3 Bft) NO 56 15 min 0,000 mm 2,0 UV-I 481 W/m 14,9 C 18,7 C 19,8 km/h (3 Bft) 0,00 %
04.09.2014 15:45 20,9 C 69 % 1013,0 hPa 0,0 l/m 16,9 km/h (3 Bft) O-NO 69 15 min 0,000 mm 2,0 UV-I 434 W/m 15,0 C 17,9 C 15,8 km/h (3 Bft) 0,00 %
04.09.2014 16:00 21,0 C 68 % 1012,9 hPa 0,0 l/m 13,0 km/h (3 Bft) O-NO 66 15 min 0,000 mm 2,0 UV-I 470 W/m 14,9 C 18,9 C 24,1 km/h (4 Bft) 0,00 %
04.09.2014 16:15 21,2 C 69 % 1013,0 hPa 0,0 l/m 10,4 km/h (2 Bft) O 80 15 min 0,000 mm 2,0 UV-I 443 W/m 15,3 C 19,8 C 19,8 km/h (3 Bft) 0,00 %
04.09.2014 16:30 21,3 C 68 % 1012,8 hPa 0,0 l/m 12,2 km/h (2 Bft) O 87 15 min 0,000 mm 2,0 UV-I 395 W/m 15,1 C 19,5 C 11,9 km/h (2 Bft) 0,00 %
04.09.2014 16:45 21,3 C 68 % 1013,0 hPa 0,0 l/m 4,3 km/h (1 Bft) O-NO 74 15 min 0,000 mm 2,0 UV-I 359 W/m 15,1 C 21,3 C 15,8 km/h (3 Bft) 0,00 %
04.09.2014 17:00 21,2 C 67 % 1012,8 hPa 0,0 l/m 13,3 km/h (3 Bft) N 355 15 min 0,000 mm 2,0 UV-I 324 W/m 14,8 C 19,1 C 7,9 km/h (2 Bft) 0,00 %
04.09.2014 17:15 21,0 C 68 % 1013,3 hPa 0,0 l/m 16,6 km/h (3 Bft) O 82 15 min 0,000 mm 1,0 UV-I 309 W/m 14,9 C 18,1 C 15,8 km/h (3 Bft) 0,00 %
04.09.2014 17:30 20,8 C 68 % 1013,6 hPa 0,0 l/m 9,7 km/h (2 Bft) O-NO 71 15 min 0,000 mm 1,0 UV-I 330 W/m 14,7 C 19,6 C 19,8 km/h (3 Bft) 0,00 %
04.09.2014 17:45 20,6 C 67 % 1013,4 hPa 0,0 l/m 10,4 km/h (2 Bft) O-NO 77 15 min 0,000 mm 1,0 UV-I 315 W/m 14,3 C 19,2 C 11,9 km/h (2 Bft) 0,00 %
04.09.2014 18:00 20,3 C 70 % 1013,6 hPa 0,0 l/m 6,8 km/h (2 Bft) NO 52 15 min 0,000 mm 1,0 UV-I 300 W/m 14,6 C 20,1 C 11,9 km/h (2 Bft) 0,00 %
04.09.2014 18:15 19,9 C 71 % 1013,7 hPa 0,0 l/m 5,8 km/h (2 Bft) O-NO 66 15 min 0,000 mm 0,0 UV-I 263 W/m 14,5 C 19,9 C 11,9 km/h (2 Bft) 0,00 %
04.09.2014 18:30 19,6 C 73 % 1013,9 hPa 0,0 l/m 11,9 km/h (2 Bft) O-NO 77 15 min 0,000 mm 0,0 UV-I 157 W/m 14,6 C 17,6 C 7,9 km/h (2 Bft) 0,00 %
04.09.2014 18:45 19,3 C 76 % 1014,2 hPa 0,0 l/m 4,0 km/h (1 Bft) O 96 15 min 0,000 mm 0,0 UV-I 121 W/m 15,0 C 19,3 C 15,8 km/h (3 Bft) 0,00 %
04.09.2014 19:00 18,9 C 77 % 1014,1 hPa 0,0 l/m 6,8 km/h (2 Bft) O 87 15 min 0,000 mm 0,0 UV-I 85 W/m 14,8 C 18,7 C 7,9 km/h (2 Bft) 0,00 %
04.09.2014 19:15 18,8 C 78 % 1014,1 hPa 0,0 l/m 7,2 km/h (2 Bft) O-SO 102 15 min 0,000 mm 0,0 UV-I 49 W/m 14,9 C 18,4 C 7,9 km/h (2 Bft) 0,00 %
04.09.2014 19:30 18,5 C 79 % 1014,3 hPa 0,0 l/m 14,0 km/h (3 Bft) O-NO 60 0 min 0,000 mm 0,0 UV-I 1 W/m 14,8 C 15,7 C 11,9 km/h (2 Bft) 0,00 %
04.09.2014 19:45 18,4 C 80 % 1014,5 hPa 0,0 l/m 11,5 km/h (2 Bft) O-NO 68 0 min 0,000 mm 0,0 UV-I 0 W/m 14,9 C 16,4 C 15,8 km/h (3 Bft) 0,00 %
04.09.2014 20:00 18,4 C 82 % 1014,4 hPa 0,0 l/m 14,0 km/h (3 Bft) O-NO 67 0 min 0,000 mm 0,0 UV-I 0 W/m 15,3 C 15,6 C 15,8 km/h (3 Bft) 0,00 %
04.09.2014 20:15 18,0 C 83 % 1014,4 hPa 0,0 l/m 2,2 km/h (1 Bft) O 85 0 min 0,000 mm 0,0 UV-I 0 W/m 15,1 C 18,0 C 15,8 km/h (3 Bft) 0,00 %
04.09.2014 20:30 18,0 C 84 % 1014,4 hPa 0,0 l/m 4,0 km/h (1 Bft) NO 36 0 min 0,000 mm 0,0 UV-I 0 W/m 15,3 C 18,0 C 4,0 km/h (1 Bft) 0,00 %
04.09.2014 20:45 17,5 C 85 % 1014,2 hPa 0,0 l/m 8,3 km/h (2 Bft) O-NO 62 0 min 0,000 mm 0,0 UV-I 0 W/m 14,9 C 16,6 C 7,9 km/h (2 Bft) 0,00 %
04.09.2014 21:00 17,4 C 86 % 1014,4 hPa 0,0 l/m 9,7 km/h (2 Bft) NO 53 0 min 0,000 mm 0,0 UV-I 0 W/m 15,0 C 15,9 C 11,9 km/h (2 Bft) 0,00 %
04.09.2014 21:15 17,6 C 85 % 1014,4 hPa 0,0 l/m 9,4 km/h (2 Bft) NO 53 0 min 0,000 mm 0,0 UV-I 0 W/m 15,0 C 16,2 C 11,9 km/h (2 Bft) 0,00 %
04.09.2014 21:30 17,6 C 86 % 1014,4 hPa 0,0 l/m 3,2 km/h (1 Bft) O-NO 76 0 min 0,000 mm 0,0 UV-I 0 W/m 15,2 C 17,6 C 11,9 km/h (2 Bft) 0,00 %
04.09.2014 21:45 17,3 C 87 % 1014,4 hPa 0,0 l/m 2,9 km/h (1 Bft) O-NO 61 0 min 0,000 mm 0,0 UV-I 0 W/m 15,1 C 17,3 C 4,0 km/h (1 Bft) 0,00 %
04.09.2014 22:00 17,4 C 86 % 1014,2 hPa 0,0 l/m 0,7 km/h (0 Bft) NO 48 0 min 0,000 mm 0,0 UV-I 0 W/m 15,0 C 17,4 C 4,0 km/h (1 Bft) 0,00 %
04.09.2014 22:15 17,5 C 86 % 1014,2 hPa 0,0 l/m 0,0 km/h (0 Bft) N-NW 344 0 min 0,000 mm 0,0 UV-I 0 W/m 15,1 C 17,5 C 4,0 km/h (1 Bft) 0,00 %
04.09.2014 22:30 17,3 C 87 % 1014,3 hPa 0,0 l/m 4,7 km/h (1 Bft) N-NO 33 0 min 0,000 mm 0,0 UV-I 0 W/m 15,1 C 17,3 C 0,0 km/h (0 Bft) 0,00 %
04.09.2014 22:45 17,6 C 86 % 1014,2 hPa 0,0 l/m 3,2 km/h (1 Bft) NO 36 0 min 0,000 mm 0,0 UV-I 0 W/m 15,2 C 17,6 C 7,9 km/h (2 Bft) 0,00 %
04.09.2014 23:00 17,8 C 85 % 1014,4 hPa 0,0 l/m 5,4 km/h (1 Bft) O-NO 73 0 min 0,000 mm 0,0 UV-I 0 W/m 15,2 C 17,8 C 7,9 km/h (2 Bft) 0,00 %
04.09.2014 23:15 17,7 C 86 % 1014,1 hPa 0,0 l/m 0,7 km/h (0 Bft) NO 40 0 min 0,000 mm 0,0 UV-I 0 W/m 15,3 C 17,7 C 7,9 km/h (2 Bft) 0,00 %
04.09.2014 23:30 17,4 C 87 % 1014,1 hPa 0,0 l/m 1,4 km/h (1 Bft) N-NO 22 0 min 0,000 mm 0,0 UV-I 0 W/m 15,2 C 17,4 C 4,0 km/h (1 Bft) 0,00 %
04.09.2014 23:45 17,2 C 87 % 1014,0 hPa 0,0 l/m 1,8 km/h (1 Bft) NO 50 0 min 0,000 mm 0,0 UV-I 0 W/m 15,0 C 17,2 C 4,0 km/h (1 Bft) 0,00 %
_ Min-Zeit 02:00 14:30 16:30 - 00:15 - - - - - - 08:45 09:00 00:30 00:00
Minimum _ 13,7 C 67 % 1012,8 hPa - 0,0 km/h (0 Bft) - - - - - - 13,1 C 10,7 C 0,0 km/h (0 Bft) 0,00 %
_ Max-Zeit 16:30 01:00 00:00 00:00 13:30 - - 12:30 00:00 11:45 14:00 23:15 16:45 13:45 00:00
Maximum _ 21,3 C 97 % 1017,5 hPa 0,0 l/m 25,9 km/h
O (4 Bft)
- - 15 min 0,000 mm 6,0 UV-I 639 W/m 15,3 C 21,3 C 28,1 km/h
O-NO (4 Bft)
0,00 %
Durchschnitt _ 17,0 C 84 % 1015,2 hPa #0,0 l/m 8,4 km/h (2 Bft) O-NO - #7:00 h #0,000 mm 3,0 UV-I 297 W/m 14,1 C 15,7 C 11,3 km/h (2 Bft) 0,00 %